Location: Unspecified
(43.4680°N, 87.1740°E)
Time: 22:33:21
(UTC+00:00)

STARLINK-1107 - Pass Details

Date: 17 January 2020
Orbit: 345 x 354 km, 53.0° (Epoch: 17 February)

Event Time Altitude Azimuth Distance (km) Brightness Sun altitude
Rises 12:43:05 0° 244° (WSW) 2,170 8.2 -18.0°
Reaches altitude 10° 12:45:07 10° 248° (WSW) 1,330 6.8 -18.3°
Maximum altitude 12:48:02 55° 328° (NNW) 436 3.1 -18.9°
Enters shadow 12:48:11 54° 343° (NNW) 440 3.1 -18.9°
